Theta_e
314 314 313 313 313 313 313 313 313 313 314 315 315 316 316 316 315 305 300 304 310 319 322 305 301 301 300 297 302 307 300 296 298 299 301 307 306 309 312 309 311 311 311 315 332
313 313 313 313 313 312 312 313 313 313 314 314 315 315 316 316 308 303 312 318 320 322 297 297 297 298 294 295 298 299 294 299 305 305 304 306 307 308 308 307 308 310 314 315 329
312 312 312 313 313 312 312 311 312 313 314 314 314 315 316 316 302 303 324 324 327 318 304 302 301 297 291 293 294 295 294 302 304 305 306 304 304 307 305 303 307 307 309 311 315
313 314 314 313 313 312 311 311 311 312 313 313 314 315 317 306 292 306 327 326 324 312 307 303 297 289 289 290 293 288 295 295 297 299 298 298 301 300 302 303 308 307 306 311 311
313 313 313 313 312 311 311 312 311 311 312 313 314 315 308 297 302 313 329 324 316 311 303 300 293 290 287 290 291 289 291 295 297 297 297 299 298 299 300 304 307 307 306 306 309
313 312 312 312 312 312 311 311 311 310 311 313 314 317 301 289 304 310 315 314 312 306 301 300 294 295 290 289 290 292 291 293 296 296 297 297 298 299 302 305 305 306 305 305 306
313 312 312 312 312 312 312 313 312 312 312 314 315 313 300 291 306 308 310 304 304 305 299 299 298 295 293 289 291 292 287 290 293 294 293 296 293 295 301 304 303 304 304 304 305
312 312 312 312 312 312 313 313 312 313 313 314 316 307 293 304 307 309 305 304 303 303 301 300 300 294 291 291 291 286 284 280 287 292 294 294 288 296 299 300 300 301 301 302 302
312 312 312 312 312 313 313 312 313 313 314 315 304 299 298 312 303 304 301 298 299 301 301 305 297 292 292 286 283 284 280 281 286 291 291 291 287 295 299 298 298 299 300 301 301
311 311 310 310 311 312 311 311 312 313 313 314 310 297 300 301 306 301 300 300 298 298 297 295 291 287 285 283 278 281 281 284 284 289 290 289 290 293 297 297 297 298 299 300 301
310 311 311 310 310 311 307 299 296 294 302 295 299 300 304 308 306 299 301 300 299 294 287 290 286 282 285 287 287 286 285 284 287 291 289 288 289 292 295 295 295 296 298 299 300
310 310 309 310 310 310 301 299 299 298 292 300 299 303 306 306 298 301 302 294 293 287 289 286 282 288 290 289 288 286 284 283 288 292 290 288 289 293 294 294 294 295 296 297 300
309 309 309 309 310 302 299 301 304 299 290 295 299 298 299 302 297 297 299 295 290 286 286 284 287 292 289 287 287 286 284 284 286 289 290 288 285 287 291 293 294 295 296 296 297
307 308 309 309 302 298 299 304 302 299 286 292 294 297 299 297 294 301 300 296 290 287 287 285 289 289 286 287 288 283 289 289 288 284 278 288 277 285 289 290 291 292 292 293 294
308 308 309 308 297 298 302 302 300 299 277 294 292 298 294 292 294 296 301 295 289 288 287 286 285 286 285 287 291 286 290 288 287 283 281 283 278 282 287 286 289 291 291 294 299
307 308 308 303 298 301 303 300 301 285 278 290 294 292 291 293 294 296 295 297 295 289 287 287 290 288 288 291 292 291 286 284 282 280 274 280 280 279 283 286 289 291 294 299 300
307 308 304 304 297 300 300 298 285 280 292 288 289 291 289 290 292 292 291 288 285 281 281 286 286 289 293 287 288 285 280 274 273 273 274 281 279 282 287 291 291 292 296 299 299
306 305 305 304 301 302 298 290 280 287 287 293 290 290 287 290 290 290 288 285 290 287 282 281 280 286 292 287 284 283 281 274 270 272 274 281 277 281 289 292 296 299 298 299 298
304 300 301 304 305 299 293 281 283 287 291 289 289 286 286 290 289 288 285 286 289 289 281 279 283 291 292 291 289 283 278 282 277 276 273 277 281 287 291 291 296 296 297 296 296
297 299 300 301 301 297 290 287 289 295 294 290 285 288 283 285 285 285 285 291 290 292 289 285 280 288 290 290 289 286 287 278 274 269 267 275 278 280 286 289 291 294 294 295 297
297 296 302 301 301 294 284 287 292 297 295 290 287 285 286 285 286 284 286 289 293 291 289 286 283 284 287 285 283 282 280 282 278 275 271 273 277 286 286 288 290 292 294 295 296
294 290 301 299 290 285 285 290 296 294 296 293 290 288 287 287 285 285 286 289 294 292 286 287 282 279 283 289 289 285 283 282 275 276 278 277 279 290 291 292 293 294 296 296 298
291 292 301 297 281 282 286 290 293 293 292 291 290 290 289 286 283 287 289 292 293 290 288 288 282 277 279 281 286 283 285 284 284 282 279 277 279 291 292 293 294 294 296 298 300
290 285 288 289 288 285 285 286 289 295 293 292 290 290 286 284 286 285 286 292 292 291 297 294 284 282 277 280 281 281 285 287 286 280 280 281 282 287 290 291 293 295 298 299 301
289 285 286 280 282 284 285 287 287 288 291 289 287 287 285 281 283 283 286 287 290 293 290 287 281 284 286 287 287 286 286 287 285 285 282 284 284 287 290 291 294 297 299 299 299
287 285 286 283 286 284 286 285 286 288 287 286 284 287 285 282 284 283 285 283 284 288 286 290 282 284 283 287 286 284 286 287 287 287 287 287 286 294 294 295 296 296 297 297 300
291 291 290 286 283 282 282 286 287 287 289 290 287 285 284 286 288 288 288 289 288 286 285 284 282 282 278 284 284 280 285 286 287 288 288 283 288 291 293 294 294 295 297 298 299
Wind_Speed
16 17 17 17 16 16 15 16 15 15 14 14 15 15 16 16 16 3 7 10 6 9 4 5 3 2 3 2 3 3 2 4 5 5 2 3 3 3 3 5 5 4 4 5 3
17 17 18 18 18 17 17 16 15 15 15 15 15 15 15 16 7 7 12 7 9 1 2 4 2 1 3 4 3 4 5 7 0 3 2 6 0 6 4 6 3 5 6 7 3
18 18 18 18 18 18 18 17 16 16 15 15 15 15 15 12 4 5 5 8 4 3 2 1 2 0 2 3 3 3 5 3 1 1 2 5 8 3 5 7 3 10 11 10 4
18 18 18 18 18 18 17 16 16 15 15 15 15 15 15 1 2 2 7 7 6 3 1 1 2 2 2 4 2 0 3 4 5 5 5 3 7 8 9 5 7 8 9 7 9
19 20 20 20 20 18 17 16 15 15 14 13 12 12 5 2 8 5 8 7 4 2 0 1 4 2 1 2 2 3 2 6 7 6 6 7 8 7 19 8 8 9 7 9 9
21 21 21 22 20 19 17 16 14 13 14 12 9 10 2 2 1 4 7 4 2 2 1 2 3 3 2 2 2 1 2 5 6 6 5 6 14 5 16 5 9 7 9 8 7
19 21 22 22 21 19 17 14 13 13 12 9 7 3 1 10 2 4 5 5 4 4 2 4 3 2 3 3 0 4 5 5 7 4 6 8 11 16 6 5 8 9 7 8 7
21 21 22 23 21 20 19 17 16 13 9 7 5 1 7 5 2 7 3 4 5 6 4 2 4 4 2 0 7 4 4 3 5 4 4 7 6 5 4 7 5 6 5 7 7
22 23 23 24 23 22 21 20 12 5 6 4 2 2 7 6 2 4 4 3 2 2 2 3 4 4 6 4 5 5 1 3 7 5 4 0 4 7 14 5 6 9 6 5 6
22 23 23 24 24 22 22 15 1 7 4 4 3 1 3 2 4 2 5 4 1 2 4 6 5 4 3 4 3 4 2 3 4 7 5 8 7 6 7 7 9 8 7 6 6
24 22 21 21 23 21 10 2 5 3 2 5 2 4 4 7 2 2 2 2 3 7 3 3 5 3 5 5 5 3 3 5 5 5 5 8 16 10 7 7 9 8 7 7 6
25 25 24 22 21 19 1 4 2 3 7 5 6 5 5 1 3 5 1 3 2 1 1 6 3 5 4 5 4 4 3 5 5 6 7 9 23 18 13 9 9 7 7 8 3
23 24 23 21 21 2 1 2 4 3 0 6 4 3 4 7 5 6 7 3 3 3 4 5 5 2 3 2 3 3 4 3 6 3 6 7 10 5 6 2 3 6 7 7 5
26 24 21 21 2 2 1 5 5 3 4 3 2 3 3 3 4 6 7 6 1 7 5 5 3 3 3 2 4 3 4 4 5 4 3 4 8 3 8 9 4 8 9 8 8
24 23 18 9 2 1 3 7 2 5 4 1 1 1 1 4 3 3 3 4 8 4 5 7 2 4 2 5 5 8 3 3 3 3 2 3 4 6 5 4 8 9 8 6 9
25 20 12 1 1 5 6 5 4 6 1 2 2 4 4 4 3 5 3 4 2 5 2 7 2 3 6 2 3 3 4 5 4 3 3 6 5 1 2 6 6 7 8 7 7
24 16 1 2 1 4 4 4 6 4 3 3 3 4 1 4 5 5 2 4 4 1 4 4 2 1 2 2 3 6 7 6 6 2 6 1 4 9 11 17 6 8 8 9 8
24 5 3 3 4 4 4 6 3 1 1 1 2 4 1 4 4 6 1 1 4 4 1 2 5 3 0 3 4 4 7 6 6 4 6 3 10 9 6 9 7 6 7 8 9
13 3 2 2 1 2 6 5 6 0 3 3 5 2 3 2 2 5 1 5 5 4 5 3 5 4 3 4 7 2 4 5 2 2 2 6 9 13 16 12 5 7 8 9 7
2 3 3 6 2 5 6 3 3 1 3 2 4 3 4 3 2 4 3 4 4 6 2 3 4 4 5 1 2 5 5 0 4 3 6 5 7 12 12 15 5 10 10 9 6
3 3 3 6 3 6 4 4 4 4 3 4 6 4 6 4 5 3 6 4 5 4 3 5 3 4 3 4 7 1 1 3 3 5 5 5 8 6 6 9 9 9 9 10 8
2 2 3 3 5 1 1 1 4 5 4 4 2 6 6 5 5 6 7 7 5 6 5 3 4 4 10 8 4 5 6 6 5 5 5 3 17 4 14 13 7 11 13 8 8
2 3 4 4 2 3 5 5 4 3 3 4 3 1 1 4 4 6 5 2 6 5 6 5 2 3 6 3 4 3 5 5 3 1 9 8 14 4 4 7 14 16 12 10 6
3 5 6 6 1 3 3 4 4 3 2 3 3 2 2 2 5 5 2 2 3 4 5 6 7 8 10 7 4 8 14 10 8 6 9 19 27 22 18 17 12 12 11 10 10
4 0 2 5 3 2 2 3 3 4 3 3 2 2 2 4 4 6 5 3 4 7 5 6 8 9 13 13 11 15 18 18 16 20 15 26 19 21 19 17 9 7 8 12 14
3 3 3 3 2 3 4 4 2 3 2 5 4 3 3 5 8 16 10 3 7 5 4 4 5 4 5 7 12 20 22 20 20 20 19 25 25 21 19 5 7 8 11 12 11
2 1 2 2 3 1 4 4 2 2 7 8 4 6 8 12 9 10 11 10 10 7 5 5 3 3 10 7 7 11 18 13 7 6 6 7 16 5 6 7 6 10 14 12 9
Wind_Direction
347 346 344 342 338 335 333 331 328 325 321 316 315 318 320 320 320 337 234 223 179 234 314 304 282 213 127 224 206 137 107 236 232 133 212 242 55 315 298 274 336 323 1 303 330
347 344 342 341 339 336 331 329 326 322 319 316 317 319 319 323 305 261 244 229 234 327 18 13 42 104 141 215 192 159 168 216 328 113 22 293 352 329 302 316 287 313 334 342 333
345 342 339 337 335 333 328 325 322 319 317 316 318 319 319 323 304 259 187 202 186 139 127 186 283 152 174 183 198 181 210 205 270 130 252 274 297 221 293 295 357 314 320 332 347
342 338 337 335 332 331 327 323 319 314 315 314 318 319 319 269 140 333 139 161 164 122 338 119 63 80 153 189 350 179 286 5 322 347 320 287 313 287 261 263 303 303 292 296 321
341 340 338 336 333 328 325 319 314 309 306 307 317 318 339 313 252 312 136 145 118 94 293 11 67 86 211 290 350 153 354 321 304 295 281 288 270 272 279 284 279 290 296 288 283
339 338 336 334 330 326 324 318 312 303 299 301 313 315 323 279 87 333 130 126 195 173 234 173 178 184 120 17 83 307 238 270 265 239 246 252 276 244 269 18 321 284 284 272 277
335 333 332 332 329 325 319 310 302 299 292 293 295 283 18 235 348 351 174 198 190 188 261 199 191 99 133 347 353 315 318 310 227 231 238 200 257 251 311 352 264 298 324 305 318
336 333 333 332 328 323 318 311 302 288 274 267 266 196 247 246 298 303 161 279 222 208 230 248 136 100 73 358 20 34 36 359 290 338 279 150 263 317 50 360 315 304 316 318 327
335 335 334 331 328 325 321 317 308 247 210 183 132 181 275 304 239 255 161 217 217 194 228 109 83 83 27 62 10 358 234 287 313 321 278 21 280 314 328 326 295 300 290 284 296
334 333 332 330 326 327 325 316 140 107 121 178 241 351 282 308 298 239 215 233 286 338 31 48 52 77 48 76 219 253 303 291 262 296 355 303 285 287 305 310 290 286 299 293 307
331 329 328 328 326 326 334 48 18 353 166 209 202 263 281 305 262 252 268 108 70 56 43 11 74 197 225 212 214 231 202 220 257 266 343 292 288 284 264 265 274 267 269 280 279
331 329 327 326 325 325 313 68 47 247 315 241 239 256 261 229 322 300 177 138 107 217 55 24 224 221 228 227 198 208 245 260 283 297 313 293 290 287 262 233 223 249 271 270 251
328 327 325 325 319 358 11 100 334 163 151 299 201 196 220 150 219 257 148 145 169 199 187 160 226 201 213 268 210 217 227 244 242 280 271 302 290 297 330 265 235 262 254 269 279
331 329 325 324 17 290 291 326 340 139 57 301 313 302 149 189 274 219 186 154 159 209 182 224 248 225 342 267 147 281 216 246 281 0 294 61 279 221 232 251 303 279 289 294 297
332 330 326 319 265 112 319 334 312 58 68 204 257 129 35 179 320 287 161 87 212 189 111 247 227 232 264 234 169 233 353 285 277 280 348 289 295 259 143 209 287 295 263 271 295
333 331 332 41 13 263 315 317 55 48 137 324 49 4 356 317 298 296 147 54 135 172 188 239 249 202 218 178 188 345 5 354 47 72 329 242 197 240 178 124 262 264 287 280 281
334 335 216 158 275 310 317 52 42 112 329 338 325 355 287 314 341 13 23 27 189 128 308 333 257 311 138 68 23 70 50 339 337 10 232 193 291 247 288 303 248 258 275 291 299
334 353 185 219 275 340 45 56 100 175 279 226 293 319 166 2 319 335 53 152 29 82 139 195 311 196 352 165 203 231 150 165 252 222 268 306 258 257 240 251 231 241 277 286 300
333 345 324 289 220 66 71 60 191 281 333 277 323 96 307 326 16 4 322 202 193 175 174 172 258 291 239 200 139 198 167 193 244 204 355 221 290 297 270 256 280 265 254 277 291
40 0 297 325 46 63 75 226 234 242 319 221 219 189 225 242 298 14 283 201 199 199 128 216 289 242 283 11 236 163 167 164 9 293 264 259 250 244 288 289 248 287 295 296 293
29 45 265 333 81 48 123 242 285 282 306 220 215 247 231 227 204 215 244 267 188 164 145 158 160 280 338 215 205 139 285 90 145 161 218 296 252 217 239 261 268 268 273 278 279
13 14 311 19 47 50 160 281 289 276 7 310 237 216 208 210 230 227 226 216 148 145 183 188 155 246 236 247 211 167 200 166 163 237 224 229 267 257 269 280 293 287 296 259 257
39 282 325 59 83 333 314 297 267 289 334 323 306 32 38 225 262 215 230 179 144 138 169 184 215 304 308 23 6 176 193 191 182 246 233 260 267 15 312 302 302 300 287 267 256
50 356 332 38 20 100 349 266 282 321 250 307 273 93 359 278 233 279 253 242 183 175 248 177 192 193 234 234 177 269 267 246 220 246 277 243 275 280 286 292 298 295 297 278 258
25 1 176 305 337 345 232 276 282 288 1 303 290 287 229 269 289 251 249 260 258 277 271 181 240 212 246 254 259 265 270 268 251 255 248 277 271 278 281 287 272 283 290 304 313
69 26 358 271 295 287 223 248 253 348 313 283 236 304 256 228 223 274 282 243 233 284 197 179 258 192 255 234 256 268 266 258 254 258 253 259 268 269 275 255 257 283 306 306 306
336 1 109 279 324 14 240 265 227 53 253 236 337 323 282 265 244 247 234 234 235 207 214 181 194 302 273 238 272 272 252 240 214 205 211 245 253 262 253 259 277 299 300 293 308